TimeEDT,TemperatureF,Dew PointF,Humidity,Sea Level PressureIn,VisibilityMPH,Wind Direction,Wind SpeedMPH,Gust SpeedMPH,PrecipitationIn,Events,Conditions,WindDirDegrees,DateUTC
12:23 AM,73.4,69.8,88,29.87,8.0,ESE,5.8,-,0.00,,Mostly Cloudy,120,2013-07-01 04:23:00
12:53 AM,73.0,71.1,93,29.86,5.0,Calm,Calm,-,0.01,Rain-Thunderstorm,Light Rain,0,2013-07-01 04:53:00
1:07 AM,73.4,71.6,94,29.88,4.0,East,3.5,-,0.01,Rain,Light Rain,80,2013-07-01 05:07:00
1:15 AM,73.4,71.6,94,29.88,4.0,East,3.5,-,0.01,Rain,Light Rain,100,2013-07-01 05:15:00
1:19 AM,73.4,71.6,94,29.88,3.0,SE,3.5,-,0.02,Rain-Thunderstorm,Rain,130,2013-07-01 05:19:00
1:30 AM,73.4,71.6,94,29.87,3.0,SE,3.5,-,0.03,Rain-Thunderstorm,Thunderstorms and Rain,130,2013-07-01 05:30:00
1:41 AM,73.4,71.6,94,29.87,4.0,Calm,Calm,-,0.03,Rain,Light Rain,0,2013-07-01 05:41:00
1:47 AM,73.4,71.6,94,29.87,4.0,Calm,Calm,-,0.03,Thunderstorm,Overcast,0,2013-07-01 05:47:00
1:48 AM,73.0,71.1,93,29.86,4.0,Calm,Calm,-,0.03,Thunderstorm,Overcast,0,2013-07-01 05:48:00
1:57 AM,73.4,71.6,94,29.89,1.8,SW,13.8,18.4,0.14,Rain-Thunderstorm,Heavy Thunderstorms and Rain,220,2013-07-01 05:57:00
2:09 AM,71.6,68.0,88,29.88,3.0,South,6.9,-,0.24,Rain-Thunderstorm,Heavy Thunderstorms and Rain,170,2013-07-01 06:09:00
2:33 AM,71.6,68.0,88,29.88,4.0,SSE,10.4,-,0.29,Rain,Heavy Rain,150,2013-07-01 06:33:00
2:40 AM,69.8,68.0,94,29.87,3.0,SSE,9.2,-,0.32,Rain-Thunderstorm,Heavy Rain,150,2013-07-01 06:40:00
2:49 AM,69.8,68.0,94,29.88,2.5,SSE,13.8,-,0.37,Rain-Thunderstorm,Heavy Thunderstorms and Rain,160,2013-07-01 06:49:00
2:53 AM,70.0,68.0,93,29.87,2.5,South,12.7,-,0.40,Rain-Thunderstorm,Heavy Thunderstorms and Rain,180,2013-07-01 06:53:00
3:03 AM,69.8,68.0,94,29.87,1.5,SSW,5.8,-,0.14,Rain-Thunderstorm,Heavy Rain,210,2013-07-01 07:03:00
3:28 AM,69.8,66.2,88,29.90,0.8,SSW,10.4,-,0.95,Rain-Thunderstorm,Heavy Thunderstorms and Rain,200,2013-07-01 07:28:00
3:42 AM,69.8,68.0,94,29.88,1.2,Calm,Calm,-,1.23,Rain,Rain,0,2013-07-01 07:42:00
3:45 AM,69.8,68.0,94,29.87,4.0,NW,3.5,-,1.23,Rain,Light Rain,320,2013-07-01 07:45:00
3:53 AM,69.1,66.9,93,29.87,9.0,East,3.5,-,1.23,,Scattered Clouds,100,2013-07-01 07:53:00
4:53 AM,70.0,68.0,93,29.87,7.0,East,4.6,-,N/A,,Mostly Cloudy,90,2013-07-01 08:53:00
5:53 AM,70.0,68.0,93,29.90,5.0,East,3.5,-,0.01,,Overcast,100,2013-07-01 09:53:00
6:53 AM,70.0,69.1,97,29.91,5.0,Calm,Calm,-,N/A,,Mostly Cloudy,0,2013-07-01 10:53:00
7:53 AM,72.0,69.1,91,29.91,5.0,Calm,Calm,-,0.00,,Overcast,0,2013-07-01 11:53:00
8:36 AM,71.6,69.8,94,29.93,4.0,Calm,Calm,-,N/A,,Overcast,0,2013-07-01 12:36:00
8:53 AM,73.0,71.1,93,29.93,5.0,Calm,Calm,-,N/A,,Overcast,0,2013-07-01 12:53:00
9:18 AM,75.2,71.6,89,29.94,6.0,Variable,3.5,-,N/A,,Mostly Cloudy,0,2013-07-01 13:18:00
9:53 AM,75.9,71.1,85,29.92,9.0,SSE,4.6,-,N/A,,Mostly Cloudy,160,2013-07-01 13:53:00
10:27 AM,78.8,69.8,74,29.93,10.0,South,9.2,-,N/A,,Overcast,190,2013-07-01 14:27:00
10:53 AM,78.1,71.1,79,29.93,10.0,Variable,4.6,-,N/A,,Overcast,0,2013-07-01 14:53:00
11:00 AM,78.8,69.8,74,29.94,10.0,South,4.6,-,N/A,,Overcast,190,2013-07-01 15:00:00
11:53 AM,78.1,69.1,74,29.93,10.0,SSE,8.1,-,N/A,,Overcast,160,2013-07-01 15:53:00
12:53 PM,78.1,69.1,74,29.92,10.0,SSE,9.2,43.7,N/A,,Mostly Cloudy,160,2013-07-01 16:53:00
1:53 PM,78.1,70.0,76,29.92,10.0,South,11.5,-,N/A,,Mostly Cloudy,170,2013-07-01 17:53:00
2:53 PM,77.0,71.1,82,29.92,10.0,South,9.2,-,0.00,,Scattered Clouds,180,2013-07-01 18:53:00
3:24 PM,78.8,71.6,78,29.93,10.0,South,15.0,18.4,N/A,,Mostly Cloudy,170,2013-07-01 19:24:00
3:53 PM,77.0,72.0,84,29.94,10.0,South,10.4,21.9,0.00,,Mostly Cloudy,170,2013-07-01 19:53:00
4:30 PM,78.8,71.6,78,29.93,10.0,SE,11.5,-,N/A,,Mostly Cloudy,140,2013-07-01 20:30:00
4:53 PM,79.0,72.0,79,29.93,10.0,SSE,12.7,20.7,N/A,,Mostly Cloudy,160,2013-07-01 20:53:00
5:07 PM,78.8,71.6,78,29.93,10.0,South,13.8,20.7,N/A,,Mostly Cloudy,180,2013-07-01 21:07:00
5:21 PM,78.8,71.6,78,29.93,10.0,South,11.5,17.3,N/A,,Mostly Cloudy,180,2013-07-01 21:21:00
5:53 PM,77.0,71.1,82,29.93,10.0,South,10.4,-,0.00,,Mostly Cloudy,170,2013-07-01 21:53:00
6:53 PM,77.0,71.1,82,29.94,10.0,South,5.8,-,N/A,,Scattered Clouds,170,2013-07-01 22:53:00
7:53 PM,78.1,70.0,76,29.95,10.0,South,13.8,21.9,N/A,,Clear,170,2013-07-01 23:53:00
8:53 PM,75.9,70.0,82,29.96,10.0,South,5.8,-,N/A,,Clear,170,2013-07-02 00:53:00
9:53 PM,75.0,71.1,87,29.98,10.0,SSE,4.6,-,N/A,,Partly Cloudy,150,2013-07-02 01:53:00
10:16 PM,75.2,71.6,89,30.00,10.0,SSE,5.8,-,N/A,,Mostly Cloudy,160,2013-07-02 02:16:00
10:30 PM,75.2,71.6,89,29.99,10.0,South,6.9,-,N/A,,Partly Cloudy,170,2013-07-02 02:30:00
10:53 PM,75.0,70.0,84,29.99,10.0,South,5.8,-,N/A,,Partly Cloudy,170,2013-07-02 02:53:00
11:53 PM,73.9,70.0,87,30.00,10.0,SE,3.5,-,N/A,,Mostly Cloudy,140,2013-07-02 03:53:00